Other Public Products
Issued by NWS Charleston, SC

Current Version | Previous Version | Text Only | Print | Product List | Glossary Off
Versions: 1 2 3 4 5 6 7 8 9 10 11 12 13 14 15 16 17 18 19 20 21 22 23 24 25 26 27 28 29 30 31 32 33 34 35 36 37 38 39 40 41 42 43 44 45 46 47 48 49 50

000
FPUS82 KCHS 140112
OPUCHS

TEST...KCHS/KSAV Gateway Observations...TEST
National Weather Service Charleston SC
800 PM EST WED DEC 13 2017

NOTE: "fair" indicates few or no clouds below 12,000 feet with no
significant weather and/or obstructions to visibility.

SCZ050-WAZ558-NCZ071-TXZ119-213-PAZ071-DCZ001-FLZ074-172-MI076-
NYZ176-178-MAZ016-IL014-TNZ027-NJZ106-GAZ044-MD014-140200-

...Gateway Observations for Charleston International...

CITY           SKY/WX    TMP DP  RH WIND       PRES   REMARKS
Chas Airport   CLEAR     39  29  67 S10       29.94F WCI  32
Seattle        MOCLDY    46  35  65 NE17      30.38R
Charlotte      PTCLDY    41  18  39 S12       29.78F
Dallas DFW     PTCLDY    60  23  24 S9        29.85F
Dallas Love    PTCLDY    62  28  27 S12       29.87S
Philladelphia  CLOUDY    29   5  36 W12       29.72F WCI  19
Wash National  FLURRIES  34  14  43 S13       29.71F WCI  25
Baltimore      LGT SNOW  31  14  49 S13G18    29.70F WCI  21
Miami          PTCLDY    60  37  42 CALM      30.10R
Detroit        SNOW      25  22  88 E7        29.41F VSB 1/2 WCI  17
Newark         MOCLDY    27   6  41 W16G24    29.69R WCI  15
Laguardia      PTCLDY    29   7  39 W20G26    29.68R WCI  16
J F K          MOCLDY    28   8  43 W23       29.70R WCI  14
Boston Logan   PTCLDY    24  10  55 W20G32    29.48R WCI  10
Ft. Lauderdale CLEAR     57  39  51 NW5       30.09R
Chicago O`Hare CLOUDY    29  18  63 NW28G38   29.52R WCI  14
Chicago Midway CLOUDY    30  20  66 NW26G35   29.52R WCI  16
Houston Bush   CLOUDY    52  35  52 S5        30.01F
Houston Hobby  CLOUDY    52  36  54 S3        30.01F
Nashville      CLEAR     47  20  34 SW9       29.76S
Atlanta        CLEAR     44  19  36 SW9       29.86F

$$

GAZ044-118-TXZ119-213-NCZ071-DCZ001-MDZ014-506-PAZ021-071-NJZ106-
NYZ176-178-MAZ106-OHZ011-021-055-MIZ076-KYZ091-ILZ014-INZ047-
MNZ060-ONZ431-140200-

...Gateway Observations for Savannah International...

CITY           SKY/WX    TMP DP  RH WIND       PRES   REMARKS
Savannah Arpt  CLEAR     42  28  57 S8        29.97S
Atlanta        CLEAR     44  19  36 SW9       29.86F
Charlotte      PTCLDY    41  18  39 S12       29.78F
Dallas DFW     PTCLDY    60  23  24 S9        29.85F
Houston Bush   CLOUDY    52  35  52 S5        30.01F
Wash National  FLURRIES  34  14  43 S13       29.71F WCI  25
Wash Dulles    CLOUDY    33   9  36 SE8       29.66F WCI  26
Baltimore      LGT SNOW  31  14  49 S13G18    29.70F WCI  21
Philadelphia   CLOUDY    29   5  36 W12       29.72F WCI  19
Newark         MOCLDY    27   6  41 W16G24    29.69R WCI  15
Laguardia      PTCLDY    29   7  39 W20G26    29.68R WCI  16
J F K          MOCLDY    28   8  43 W23       29.70R WCI  14
Boston         PTCLDY    24  10  55 W20G32    29.48R WCI  10
Pittsburg      LGT SNOW  23  19  85 SE5       29.52S VSB 1   WCI  17
Akron          LGT SNOW  21  16  81 S12       29.47F VSB 3/4 WCI   9
Cleveland      LGT SNOW  22  18  85 S13       29.47F FOG     WCI  10
Cincinnati     CLOUDY    43  22  43 SW15G26   29.44F
Columbus       CLOUDY    31  17  55 S9        29.43F WCI  23
Detroit        SNOW      25  22  88 E7        29.41F VSB 1/2 WCI  17
Chicago O`Hare CLOUDY    29  18  63 NW28G38   29.52R WCI  14
Minneapolis    CLOUDY    23  17  78 NW13      29.87R WCI  11
Indianapolis   CLOUDY    40  31  70 W32G45    29.50R WCI  28
Toronto Canada FLURRIES  16   5  62 NE5       29.60R WCI   9

$$




USA.gov is the U.S. government's official web portal to all federal, state and local government web resources and services.